1529229601.06,28709,17.56,74080.5,8.25,4.63,4.57,0,*71
1529229602.26,28710,17.56,74078.0,8.23,4.67,4.53,0,*7F
1529229603.49,28711,17.56,74078.3,8.23,4.71,4.59,0,*73
1529229604.71,28712,17.56,74080.3,8.23,4.79,4.59,0,*78
1529229605.96,28713,17.56,74078.5,8.21,4.79,4.59,0,*7B
1529229607.13,28714,17.56,74078.8,8.23,4.57,4.41,0,*7B
1529229608.33,28715,17.56,74076.3,8.23,4.67,4.57,0,*7E
1529229609.59,28716,17.56,74078.3,8.21,4.79,4.71,0,*74
1529229610.82,28717,17.56,74078.0,8.25,4.85,4.75,0,*76
1529229612.04,28718,17.56,74078.5,8.23,4.79,4.59,0,*72
1529229613.29,28719,17.56,74078.0,8.21,4.67,4.59,0,*7E
1529229614.49,28720,17.56,74078.5,8.21,4.45,4.41,0,*7D
1529229615.69,28721,17.56,74080.3,8.21,4.53,4.41,0,*7B
1529229616.87,28722,17.56,74076.8,8.23,4.53,4.33,0,*7F
1529229618.12,28723,17.56,74076.8,8.21,4.01,3.97,0,*72
1529229619.31,28724,17.56,74082.3,8.23,4.07,4.01,0,*79
1529229620.54,28725,17.56,74080.0,8.21,4.31,4.11,0,*7E
1529229621.76,28726,17.56,74078.3,8.21,4.31,4.19,0,*75
1529229622.96,28727,17.56,74076.8,8.25,4.37,4.27,0,*7B
1529229624.16,28728,17.56,74078.3,8.21,4.57,4.53,0,*75
1529229625.38,28729,17.56,74076.3,8.23,4.75,4.59,0,*7C
1529229626.58,28730,17.56,74078.3,8.23,4.59,4.45,0,*77
1529229627.78,28731,17.56,74078.8,8.23,4.67,4.53,0,*7C
1529229628.95,28732,17.56,74080.0,8.23,4.57,4.45,0,*7B
1529229630.15,28733,17.56,74078.5,8.21,4.57,4.41,0,*7C
1529229631.36,28734,17.56,74078.3,8.23,4.59,4.45,0,*73
1529229632.58,28735,17.56,74076.5,8.21,4.59,4.45,0,*70
1529229633.81,28736,17.56,74082.3,8.21,4.67,4.57,0,*7D
1529229635.04,28737,17.56,74076.0,8.21,4.81,4.71,0,*70
1529229636.24,28738,17.56,74076.5,8.23,4.67,4.45,0,*72
1529229637.48,28739,17.56,74080.0,8.25,4.63,4.59,0,*7C
1529229638.68,28740,17.56,74076.8,8.23,4.67,4.57,0,*7E
1529229639.86,28741,17.56,74076.0,8.23,4.45,4.33,0,*7D
1529229641.06,28742,17.56,74078.0,8.21,4.33,4.23,0,*7C
1529229642.23,28743,17.56,74076.3,8.23,4.33,4.19,0,*76
1529229643.4,28744,17.56,74080.8,8.23,4.41,4.23,0,*7D
1529229644.57,28745,17.56,74078.0,8.23,4.41,4.23,0,*7C
1529229645.77,28746,17.56,74076.5,8.21,4.33,4.23,0,*78
1529229646.96,28747,17.56,74080.0,8.21,4.33,4.19,0,*70
1529229648.18,28748,17.56,74082.0,8.21,4.19,4.01,0,*7E
1529229649.4,28749,17.56,74076.8,8.21,4.19,4.01,0,*7F
1529229650.6,28750,17.56,74076.5,8.21,4.33,4.19,0,*76
1529229651.83,28751,17.56,74082.0,8.21,4.59,4.45,0,*72
1529229653.03,28752,17.56,74076.8,8.21,4.45,4.41,0,*78
1529229654.21,28753,17.56,74076.8,8.19,4.41,4.37,0,*77
1529229655.39,28754,17.56,74080.3,8.23,4.45,4.41,0,*7C
1529229656.63,28755,17.56,74076.5,8.21,4.67,4.59,0,*76
1529229657.89,28756,17.56,74080.8,8.21,4.67,4.67,0,*78
1529229659.14,28757,17.56,74076.0,8.21,4.79,4.67,0,*76
1529229660.36,28758,17.56,74076.5,8.21,4.81,4.79,0,*71
1529229661.56,28759,17.56,74078.5,8.23,4.81,4.79,0,*72
1529229662.76,28760,17.56,74076.5,8.23,4.81,4.71,0,*70
1529229664.01,28761,17.56,74078.0,8.21,4.79,4.59,0,*7E
1529229665.21,28762,17.56,74082.5,8.23,4.81,4.79,0,*7A
1529229666.46,28763,17.56,74080.0,8.21,4.93,4.79,0,*7A
1529229667.66,28764,17.56,74078.8,8.23,4.81,4.79,0,*7C
1529229668.88,28765,17.56,74078.8,8.25,4.93,4.81,0,*7F
1529229670.11,28766,17.56,74080.0,8.25,4.97,4.81,0,*78
1529229671.34,28767,17.56,74078.0,8.25,4.85,4.75,0,*71
1529229672.57,28768,17.56,74076.5,8.25,4.85,4.75,0,*7E
1529229673.74,28769,17.56,74078.8,8.27,4.85,4.81,0,*76
1529229674.96,28770,17.56,74080.5,8.25,4.97,4.89,0,*77
1529229676.19,28771,17.56,74076.3,8.27,4.97,4.79,0,*7B
1529229677.41,28772,17.56,74076.5,8.27,4.75,4.59,0,*76
1529229678.64,28773,17.56,74076.5,8.29,4.59,4.49,0,*76
1529229679.84,28774,17.56,74076.0,8.25,4.37,4.27,0,*7D
1529229681.02,28775,17.56,74076.3,8.27,4.53,4.37,0,*7D
1529229682.25,28776,17.56,74078.8,8.25,4.85,4.71,0,*75
1529229683.47,28777,17.56,74078.8,8.27,4.79,4.59,0,*7F
1529229684.69,28778,17.56,74078.8,8.25,4.59,4.49,0,*71
1529229685.95,28779,17.56,74080.8,8.25,4.75,4.71,0,*75
1529229687.18,28780,17.56,74076.3,8.29,4.31,4.27,0,*7C
1529229688.38,28781,17.56,74078.3,8.25,4.37,4.27,0,*77
1529229689.6,28782,17.56,74076.8,8.25,4.15,4.01,0,*70
1529229690.81,28783,17.56,74078.8,8.25,4.15,3.89,0,*76
1529229692.05,28784,17.56,74080.0,8.25,4.01,3.79,0,*7B
1529229693.26,28785,17.56,74078.8,8.25,4.11,3.93,0,*7F
1529229694.46,28786,17.56,74078.0,8.21,4.19,4.07,0,*7A
1529229695.66,28787,17.56,74078.5,8.25,4.37,4.23,0,*75
1529229696.86,28788,17.56,74078.5,8.25,4.37,4.27,0,*7E
1529229698.08,28789,17.56,74076.0,8.25,4.01,3.85,0,*75
1529229699.28,28790,17.56,74076.5,8.23,4.07,3.97,0,*7E
1529229700.48,28791,17.56,74078.5,8.21,4.19,4.07,0,*7C
1529229701.65,28792,17.56,74080.8,8.23,4.23,4.11,0,*73
1529229702.82,28793,17.56,74080.0,8.23,4.41,4.23,0,*77
1529229704.02,28794,17.56,74076.8,8.21,4.57,4.45,0,*75
1529229705.22,28795,17.56,74078.3,8.23,4.59,4.45,0,*78
1529229706.42,28796,17.56,74076.8,8.23,4.59,4.41,0,*7F
1529229707.65,28797,17.56,74080.3,8.21,4.59,4.45,0,*78
1529229708.82,28798,17.56,74078.8,8.23,4.57,4.41,0,*7F
1529229710.05,28799,17.56,74076.0,8.21,4.45,4.31,0,*78
1529229711.25,28800,17.56,74078.0,8.25,4.27,4.11,0,*75
1529229712.45,28801,17.56,74078.5,8.21,4.07,3.85,0,*78
1529229713.62,28802,17.56,74078.3,8.23,4.19,3.89,0,*7A
1529229714.8,28803,17.56,74078.8,8.23,4.57,4.33,0,*77
1529229715.99,28804,17.56,74082.8,8.21,4.23,4.11,0,*71
1529229717.19,28805,17.56,74080.0,8.21,4.23,4.11,0,*70
1529229718.39,28806,17.56,74076.5,8.25,4.33,4.23,0,*77
1529229719.56,28807,17.56,74078.8,8.23,4.41,4.23,0,*75
1529229720.76,28808,17.56,74080.3,8.21,4.53,4.41,0,*7F
1529229721.96,28809,17.56,74078.0,8.21,4.33,4.23,0,*7C
1529229723.16,28810,17.56,74074.8,8.23,4.31,4.19,0,*7D
1529229724.35,28811,17.56,74080.0,8.21,4.33,4.19,0,*7C
1529229725.56,28812,17.56,74076.3,8.19,4.37,4.31,0,*7A
1529229726.76,28813,17.56,74078.8,8.23,4.41,4.31,0,*73
1529229727.95,28814,17.56,74080.0,8.19,4.27,4.07,0,*78
1529229729.14,28815,17.56,74078.3,8.21,4.57,4.45,0,*73
1529229730.39,28816,17.56,74076.0,8.25,4.63,4.59,0,*7E
1529229731.62,28817,17.56,74076.0,8.21,4.59,4.53,0,*78
1529229732.85,28818,17.56,74076.3,8.21,4.59,4.45,0,*70
1529229734.05,28819,17.56,74076.5,8.23,4.59,4.53,0,*74
1529229735.28,28820,17.56,74076.3,8.23,4.71,4.59,0,*7E
1529229736.51,28821,17.56,74080.0,8.21,4.59,4.45,0,*7A
1529229737.71,28822,17.56,74078.8,8.23,4.59,4.41,0,*7F
1529229738.92,28823,17.56,74078.3,8.23,4.71,4.57,0,*73
1529229740.15,28824,17.56,74076.5,8.25,4.81,4.75,0,*7D
1529229741.38,28825,17.56,74076.5,8.25,4.85,4.75,0,*78
1529229742.55,28826,17.56,74078.0,8.23,4.53,4.41,0,*71
1529229743.78,28827,17.56,74078.3,8.25,4.63,4.45,0,*71
1529229744.95,28828,17.56,74078.5,8.23,4.57,4.45,0,*7F
1529229746.13,28829,17.56,74074.3,8.23,4.45,4.41,0,*79
1529229747.3,28830,17.56,74080.5,8.23,4.53,4.33,0,*73
1529229748.48,28831,17.56,74080.3,8.23,4.33,4.23,0,*75
1529229749.65,28832,17.56,74078.3,8.23,4.53,4.33,0,*71
1529229750.85,28833,17.56,74078.5,8.23,4.45,4.31,0,*75
1529229752.05,28834,17.56,74076.5,8.23,4.59,4.45,0,*7C
1529229753.25,28835,17.56,74078.5,8.23,4.67,4.57,0,*73
1529229754.45,28836,17.56,74078.8,8.23,4.67,4.57,0,*70
1529229755.66,28837,17.56,74076.3,8.23,4.71,4.53,0,*72
1529229756.83,28838,17.56,74080.0,8.23,4.57,4.45,0,*7E
1529229758.03,28839,17.56,74078.0,8.23,4.59,4.45,0,*71
1529229759.24,28840,17.56,74076.0,8.23,4.71,4.53,0,*72
1529229760.47,28841,17.56,74076.5,8.25,4.71,4.57,0,*71
1529229761.72,28842,17.56,74082.0,8.25,4.75,4.59,0,*78
1529229762.95,28843,17.56,74080.3,8.25,4.81,4.63,0,*7B
1529229764.15,28844,17.56,74076.3,8.27,4.75,4.53,0,*76
1529229765.34,28845,17.56,74078.8,8.25,4.33,4.23,0,*70
1529229766.52,28846,17.56,74078.8,8.27,4.27,4.07,0,*72
1529229767.72,28847,17.56,74078.8,8.27,4.19,4.05,0,*7C
1529229768.93,28848,17.56,74078.8,8.27,4.05,3.89,0,*7D
1529229770.12,28849,17.56,74076.5,8.23,4.11,4.01,0,*7A
1529229771.29,28850,17.56,74076.8,8.23,4.33,4.23,0,*72
1529229772.47,28851,17.56,74076.5,8.23,4.53,4.33,0,*74
1529229773.64,28852,17.56,74076.3,8.23,4.45,4.45,0,*71
1529229774.85,28853,17.56,74076.3,8.25,4.37,4.33,0,*72
1529229776.05,28854,17.56,74082.8,8.25,4.45,4.27,0,*75
1529229777.25,28855,17.56,74078.5,8.25,4.57,4.33,0,*72
1529229778.44,28856,17.56,74082.8,8.25,4.57,4.49,0,*7C
1529229779.64,28857,17.56,74082.0,8.25,4.49,4.45,0,*7E
1529229780.84,28858,17.56,74076.8,8.25,4.49,4.37,0,*74
1529229782.03,28859,17.56,74076.8,8.25,4.49,4.49,0,*7C
1529229783.21,28860,17.56,74082.8,8.27,4.53,4.41,0,*77
1529229784.4,28861,17.56,74078.0,8.25,4.45,4.27,0,*73
1529229785.61,28862,17.56,74076.8,8.27,4.59,4.53,0,*7C
1529229786.83,28863,17.56,74078.3,8.27,4.63,4.59,0,*7E
1529229788.0,28864,17.56,74080.3,8.27,4.57,4.57,0,*70
1529229789.23,28865,17.56,74076.3,8.25,4.59,4.57,0,*7D
1529229790.46,28866,17.56,74076.8,8.25,4.59,4.49,0,*71
1529229791.66,28867,17.56,74078.8,8.27,4.41,4.31,0,*74
1529229792.83,28868,17.56,74078.5,8.27,4.19,4.15,0,*70
1529229794.0,28869,17.56,74078.0,8.27,4.15,4.07,0,*7E
1529229795.2,28870,17.56,74078.5,8.25,4.33,4.23,0,*76
1529229796.37,28871,17.56,74080.8,8.27,4.27,4.27,0,*74
1529229797.55,28872,17.56,74078.5,8.27,4.15,4.15,0,*77
1529229798.75,28873,17.56,74078.5,8.25,4.15,4.15,0,*74
1529229799.95,28874,17.56,74080.3,8.25,3.93,3.93,0,*73
1529229801.18,28875,17.56,74078.8,8.25,3.97,3.93,0,*76
1529229802.36,28876,17.56,74076.5,8.27,3.89,3.89,0,*73
1529229803.61,28877,17.56,74076.5,8.25,3.75,3.67,0,*73
1529229804.86,28878,17.56,74078.3,8.25,3.53,3.45,0,*78
1529229806.11,28879,17.56,74078.3,8.21,3.49,3.41,0,*72
1529229807.32,28880,17.56,74078.8,8.23,3.41,3.29,0,*70
1529229808.54,28881,17.56,74076.5,8.23,3.41,3.37,0,*7E
1529229809.74,28882,17.56,74076.5,8.17,3.59,3.59,0,*7B
1529229810.97,28883,17.56,74074.5,8.19,3.79,3.79,0,*74
1529229812.23,28884,17.56,74078.5,8.17,3.71,3.71,0,*7D
1529229813.46,28885,17.56,74078.0,8.19,3.79,3.71,0,*7A
1529229814.64,28886,17.56,74076.8,8.19,3.81,3.81,0,*71
1529229815.82,28887,17.56,74074.5,8.19,3.85,3.85,0,*70
1529229817.0,28888,17.56,74078.0,8.19,4.07,4.07,0,*7F
1529229818.18,28889,17.56,74076.8,8.19,3.93,3.85,0,*79
1529229819.39,28890,17.56,74078.5,8.17,3.85,3.93,0,*7F
1529229820.57,28891,17.56,74078.5,8.19,4.15,4.07,0,*74
1529229821.77,28892,17.56,74076.0,8.17,4.27,4.27,0,*7A
1529229823.0,28893,17.56,74080.8,8.19,3.79,3.71,0,*7D
1529229824.26,28894,17.56,74078.8,8.17,3.71,3.79,0,*74
1529229825.44,28895,17.56,74082.0,8.19,3.93,3.93,0,*73
1529229826.67,28896,17.56,74078.8,8.17,3.97,3.93,0,*7A
1529229827.88,28897,17.56,74076.0,8.17,3.93,3.81,0,*7C
1529229829.09,28898,17.56,74076.3,8.17,4.07,4.07,0,*70
1529229830.29,28899,17.56,74076.3,8.17,4.15,4.19,0,*7D
1529229831.54,28900,17.56,74078.8,8.17,3.71,3.71,0,*70
1529229832.74,28901,17.56,74078.3,8.17,3.85,3.85,0,*71
1529229833.95,28902,17.56,74078.8,8.19,4.05,4.07,0,*7E
1529229835.12,28903,17.56,74078.3,8.15,3.63,3.63,0,*71
1529229836.35,28904,17.56,74078.0,8.15,3.75,3.75,0,*76
1529229837.53,28905,17.56,74082.3,8.15,3.81,3.93,0,*74
1529229838.71,28906,17.56,74076.8,8.15,3.93,3.93,0,*74
1529229839.93,28907,17.56,74078.5,8.15,4.01,4.05,0,*71
1529229841.1,28908,17.56,74078.3,8.15,4.15,4.15,0,*7A
1529229842.27,28909,17.56,74078.8,8.15,4.23,4.27,0,*7F
1529229843.49,28910,17.56,74078.0,8.17,4.37,4.41,0,*70
1529229844.7,28911,17.56,74076.3,8.19,4.31,4.37,0,*78
1529229845.87,28912,17.56,74074.3,8.19,4.49,4.53,0,*76
1529229847.08,28913,17.56,74078.8,8.19,4.57,4.63,0,*7B
1529229848.29,28914,17.56,74074.5,8.19,4.57,4.75,0,*7B
1529229849.47,28915,17.56,74076.8,8.19,4.53,4.53,0,*7A
1529229850.65,28916,17.56,74076.3,8.19,4.57,4.57,0,*79
1529229851.88,28917,17.56,74078.5,8.21,4.57,4.67,0,*70
1529229853.13,28918,17.56,74072.5,8.21,4.67,4.79,0,*73
1529229854.35,28919,17.56,74078.3,8.21,4.53,4.59,0,*77
1529229855.58,28920,17.56,74076.3,8.21,4.57,4.59,0,*79
1529229856.77,28921,17.56,74076.3,8.21,4.45,4.53,0,*71
1529229857.98,28922,17.56,74078.5,8.21,4.53,4.53,0,*75
1529229859.23,28923,17.56,74080.8,8.21,4.59,4.79,0,*76
1529229860.46,28924,17.56,74074.8,8.23,4.67,4.79,0,*7E
1529229861.72,28925,17.56,74078.5,8.25,4.71,4.71,0,*76
1529229862.91,28926,17.56,74074.5,8.25,4.49,4.49,0,*75
1529229864.08,28927,17.56,74076.5,8.27,4.49,4.49,0,*76
1529229865.27,28928,17.56,74074.5,8.29,4.49,4.53,0,*7C
1529229866.5,28929,17.56,74076.0,8.23,4.67,4.67,0,*7C
1529229867.67,28930,17.56,74076.0,8.27,4.85,4.85,0,*70
1529229868.87,28931,17.56,74080.8,8.25,4.81,4.81,0,*73
1529229870.09,28932,17.56,74074.0,8.25,4.93,4.81,0,*73
1529229871.29,28933,17.56,74076.0,8.27,4.85,4.79,0,*70
1529229872.49,28934,17.56,74076.3,8.25,4.57,4.57,0,*76
1529229873.7,28935,17.56,74076.5,8.27,4.37,4.31,0,*73
1529229874.87,28936,17.56,74076.3,8.27,4.41,4.41,0,*76
1529229876.05,28937,17.56,74076.8,8.27,4.53,4.49,0,*7C
1529229877.27,28938,17.56,74072.8,8.27,4.63,4.59,0,*71
1529229878.52,28939,17.56,74080.5,8.29,4.63,4.59,0,*7E
1529229879.77,28940,17.56,74078.3,8.29,4.75,4.67,0,*7A
1529229881.0,28941,17.56,74076.3,8.31,4.79,4.79,0,*71
1529229882.25,28942,17.56,74078.3,8.29,4.79,4.67,0,*74
1529229883.48,28943,17.56,74080.8,8.31,4.67,4.67,0,*73
1529229884.73,28944,17.56,74076.3,8.29,4.75,4.67,0,*7E
1529229885.98,28945,17.56,74076.3,8.29,4.67,4.59,0,*71
1529229887.24,28946,17.56,74076.8,8.29,4.75,4.75,0,*7F
1529229888.45,28947,17.56,74078.0,8.31,4.89,4.71,0,*70
1529229889.68,28948,17.56,74076.0,8.31,4.79,4.71,0,*70
1529229890.9,28949,17.56,74076.8,8.33,4.67,4.53,0,*7C
1529229892.07,28950,17.56,74076.0,8.31,4.57,4.45,0,*72
1529229893.32,28951,17.56,74076.8,8.33,4.79,4.63,0,*79
1529229894.58,28952,17.56,74078.0,8.33,4.71,4.67,0,*76
1529229895.84,28953,17.56,74078.5,8.33,4.71,4.63,0,*73
1529229897.1,28954,17.56,74080.0,8.33,4.79,4.63,0,*7C
1529229898.32,28955,17.56,74080.0,8.35,4.79,4.59,0,*72
1529229899.5,28956,17.56,74078.5,8.35,4.37,4.27,0,*72
1529229900.66,28957,17.56,74078.5,8.35,4.45,4.27,0,*76
1529229901.89,28958,17.56,74076.3,8.33,4.63,4.57,0,*7C
1529229903.16,28959,17.56,74076.0,8.33,4.71,4.71,0,*7A
1529229904.41,28960,17.56,74078.3,8.33,4.67,4.67,0,*70
1529229905.67,28961,17.56,74074.5,8.33,4.71,4.71,0,*71
1529229906.87,28962,17.56,74076.8,8.33,4.81,4.81,0,*72
1529229908.07,28963,17.56,74076.0,8.33,4.89,4.89,0,*73
1529229909.24,28964,17.56,74078.5,8.35,4.81,4.81,0,*72
1529229910.47,28965,17.56,74078.0,8.35,4.93,4.93,0,*73
1529229911.67,28966,17.56,74076.0,8.39,5.01,4.89,0,*7D
1529229912.87,28967,17.56,74078.0,8.39,4.89,4.79,0,*72
1529229914.1,28968,17.56,74080.8,8.41,4.85,4.79,0,*7E
1529229915.3,28969,17.56,74078.5,8.41,4.89,4.85,0,*70
1529229916.47,28970,17.56,74074.5,8.39,4.85,4.85,0,*7B
1529229917.68,28971,17.56,74078.3,8.45,4.93,4.85,0,*76
1529229918.89,28972,17.56,74076.8,8.45,4.81,4.79,0,*75
1529229920.07,28973,17.56,74080.3,8.45,4.85,4.85,0,*73
1529229921.28,28974,17.56,74078.0,8.45,4.93,4.85,0,*73
1529229922.54,28975,17.56,74076.3,8.41,4.97,4.97,0,*71
1529229923.78,28976,17.56,74078.8,8.45,4.97,5.05,0,*7C
1529229925.01,28977,17.56,74078.3,8.45,4.97,5.05,0,*7D
1529229926.21,28978,17.56,74076.3,8.47,4.81,4.81,0,*7A
1529229927.45,28979,17.56,74078.8,8.45,4.79,4.71,0,*71
1529229928.69,28980,17.56,74078.3,8.45,4.71,4.59,0,*75
1529229929.95,28981,17.56,74076.3,8.47,4.59,4.59,0,*7C
1529229931.18,28982,17.56,74078.3,8.47,4.59,4.49,0,*7E
1529229932.36,28983,17.56,74076.3,8.45,4.33,4.27,0,*79
1529229933.54,28984,17.56,74078.3,8.45,4.45,4.33,0,*7A
1529229934.77,28985,17.56,74076.8,8.45,4.59,4.59,0,*7A
1529229935.95,28986,17.56,74080.3,8.45,4.85,4.81,0,*7D
1529229937.13,28987,17.56,74078.0,8.45,4.85,4.81,0,*7C
1529229938.31,28988,17.56,74078.5,8.45,4.85,4.81,0,*73
1529229939.58,28989,17.56,74074.0,8.47,4.71,4.71,0,*74
1529229940.81,28990,17.56,74076.5,8.47,4.81,4.79,0,*7B
1529229942.07,28991,17.56,74078.5,8.47,5.05,4.97,0,*77
1529229943.3,28992,17.56,74080.8,8.47,4.93,4.81,0,*7D
1529229944.54,28993,17.56,74078.0,8.49,5.01,4.97,0,*7F
1529229945.74,28994,17.56,74076.3,8.49,5.01,4.89,0,*77
1529229947.0,28995,17.56,74078.3,8.51,5.01,4.93,0,*74
1529229948.21,28996,17.56,74076.5,8.49,5.01,4.85,0,*79
1529229949.44,28997,17.56,74078.5,8.51,5.15,5.01,0,*79
1529229950.65,28998,17.56,74078.5,8.49,5.11,4.97,0,*75
1529229951.88,28999,17.56,74078.5,8.51,5.11,5.05,0,*77
1529229953.11,29000,17.56,74076.8,8.51,4.93,4.85,0,*7D
1529229954.34,29001,17.56,74078.5,8.53,5.05,4.93,0,*77
1529229955.57,29002,17.56,74078.0,8.55,4.93,4.89,0,*77
1529229956.78,29003,17.56,74078.8,8.53,5.01,4.85,0,*76
1529229958.01,29004,17.56,74076.8,8.55,5.07,4.97,0,*72
1529229959.27,29005,17.56,74076.8,8.55,5.05,4.97,0,*71
1529229960.53,29006,17.56,74080.0,8.55,5.05,4.97,0,*72
1529229961.79,29007,17.56,74078.3,8.55,5.05,4.97,0,*73
1529229962.99,29008,17.56,74074.3,8.57,4.81,4.79,0,*73
1529229964.25,29009,17.56,74076.5,8.59,5.01,4.97,0,*75
1529229965.47,29010,17.56,74074.0,8.59,5.19,5.07,0,*7C
1529229966.7,29011,17.56,74082.0,8.57,5.05,4.97,0,*76
1529229967.91,29012,17.56,74076.0,8.59,5.11,5.11,0,*71
1529229969.13,29013,17.56,74078.5,8.59,5.11,5.11,0,*70
1529229970.33,29014,17.56,74076.8,8.59,5.07,5.11,0,*70
1529229971.59,29015,17.56,74078.3,8.63,4.79,4.75,0,*73
1529229972.82,29016,17.56,74076.8,8.63,4.85,4.79,0,*7F
1529229974.06,29017,17.56,74076.5,8.65,4.79,4.67,0,*74
1529229975.32,29018,17.56,74076.3,8.67,5.05,5.01,0,*72
1529229976.53,29019,17.56,74076.8,8.65,4.97,4.89,0,*7A
1529229977.77,29020,17.56,74076.5,8.65,4.97,4.97,0,*7F
1529229979.02,29021,17.56,74076.0,8.67,4.79,4.79,0,*7C
1529229980.25,29022,17.56,74078.0,8.67,4.81,4.79,0,*78
1529229981.51,29023,17.56,74078.8,8.67,4.59,4.67,0,*73
1529229982.73,29024,17.56,74076.0,8.67,4.37,4.37,0,*79
1529229983.98,29025,17.56,74080.8,8.67,4.67,4.67,0,*78
1529229985.25,29026,17.56,74078.3,8.67,4.93,4.93,0,*7B
1529229986.49,29027,17.56,74078.5,8.69,4.71,4.71,0,*74
1529229987.67,29028,17.56,74078.0,8.69,4.57,4.57,0,*7B
1529229988.85,29029,17.56,74074.8,8.69,4.57,4.49,0,*75
1529229990.03,29030,17.56,74078.3,8.69,4.49,4.57,0,*7D
1529229991.26,29031,17.56,74076.5,8.67,4.71,4.89,0,*7A
1529229992.5,29032,17.56,74076.0,8.69,4.93,4.93,0,*70
1529229993.74,29033,17.56,74078.0,8.69,5.01,5.01,0,*71
1529229995.0,29034,17.56,74078.3,8.67,5.05,5.05,0,*78
1529229996.24,29035,17.56,74076.8,8.71,5.05,5.07,0,*7C
1529229997.47,29036,17.56,74076.8,8.73,4.75,4.71,0,*7B
1529229998.7,29037,17.56,74078.0,8.71,4.53,4.59,0,*76
1529229999.96,29038,17.56,74078.8,8.71,4.71,4.75,0,*77
1529230001.19,29039,17.56,74076.3,8.73,4.75,4.79,0,*7C
1529230002.42,29040,17.56,74078.8,8.73,4.63,4.75,0,*79
1529230003.68,29041,17.56,74076.0,8.71,4.63,4.71,0,*7E
1529230004.86,29042,17.56,74074.3,8.73,4.53,4.53,0,*7C
1529230006.07,29043,17.56,74076.5,8.71,4.27,4.41,0,*7F
1529230007.27,29044,17.56,74076.5,8.71,4.23,4.37,0,*7D
1529230008.45,29045,17.56,74072.3,8.73,4.53,4.57,0,*7F
1529230009.72,29046,17.56,74076.5,8.71,4.71,4.75,0,*7E
1529230010.92,29047,17.56,74078.5,8.73,4.85,4.75,0,*76
1529230012.12,29048,17.56,74074.5,8.71,4.81,4.85,0,*70
1529230013.32,29049,17.56,74072.8,8.73,4.85,4.97,0,*74
1529230014.55,29050,17.56,74076.5,8.71,4.85,4.97,0,*7E
1529230015.76,29051,17.56,74076.8,8.73,4.89,4.97,0,*71
1529230016.99,29052,17.56,74078.8,8.73,4.97,4.97,0,*7D
1529230018.17,29053,17.56,74076.3,8.73,4.85,4.85,0,*7C
1529230019.34,29054,17.56,74074.8,8.73,4.89,4.85,0,*77
1529230020.54,29055,17.56,74078.0,8.75,4.81,4.81,0,*7C
1529230021.8,29056,17.56,74078.8,8.77,5.01,5.05,0,*79
1529230023.03,29057,17.56,74076.3,8.77,4.93,4.89,0,*77
1529230024.28,29058,17.56,74076.0,8.75,4.67,4.59,0,*7C
1529230025.51,29059,17.56,74078.8,8.75,4.57,4.59,0,*7E
1529230026.77,29060,17.56,74074.5,8.77,4.59,4.67,0,*75
1529230028.03,29061,17.56,74078.8,8.77,4.67,4.71,0,*7E
1529230029.29,29062,17.56,74078.0,8.75,4.67,4.71,0,*7F
1529230030.51,29063,17.56,74074.8,8.75,4.79,4.81,0,*7E
1529230031.75,29064,17.56,74072.5,8.79,4.93,4.97,0,*76
1529230032.99,29065,17.56,74072.5,8.77,4.89,4.93,0,*76
1529230034.24,29066,17.56,74074.3,8.75,4.79,4.79,0,*7C
1529230035.44,29067,17.56,74076.5,8.77,4.81,4.89,0,*77
1529230036.64,29068,17.56,74076.3,8.75,4.81,4.81,0,*72
1529230037.87,29069,17.56,74074.8,8.79,4.93,4.97,0,*7B
1529230039.09,29070,17.56,74074.3,8.79,4.97,5.07,0,*7F
1529230040.27,29071,17.56,74074.3,8.79,5.07,5.19,0,*79
1529230041.45,29072,17.56,74078.8,8.79,5.07,5.15,0,*76
1529230042.63,29073,17.56,74076.5,8.79,4.85,4.85,0,*74
1529230043.89,29074,17.56,74076.5,8.77,4.67,4.67,0,*7D
1529230045.1,29075,17.56,74074.3,8.77,4.57,4.57,0,*7C
1529230046.3,29076,17.56,74076.3,8.77,4.49,4.57,0,*70
1529230047.51,29077,17.56,74078.8,8.77,4.45,4.45,0,*7E
1529230048.72,29078,17.56,74074.5,8.77,4.41,4.41,0,*71
1529230049.91,29079,17.56,74072.8,8.75,4.81,4.81,0,*72
1529230051.17,29080,17.56,74076.8,8.75,5.01,5.05,0,*70
1529230052.43,29081,17.56,74076.0,8.77,5.01,5.05,0,*73
1529230053.67,29082,17.56,74078.8,8.79,5.05,4.97,0,*70
1529230054.91,29083,17.56,74078.0,8.79,4.71,4.63,0,*78
1529230056.09,29084,17.56,74076.0,8.79,4.15,4.11,0,*78
1529230057.27,29085,17.56,74076.3,8.79,4.37,4.37,0,*7D
1529230058.45,29086,17.56,74078.3,8.79,4.49,4.45,0,*72
1529230059.68,29087,17.56,74076.3,8.77,4.31,4.23,0,*72
1529230060.92,29088,17.56,74074.3,8.77,4.31,4.33,0,*7C
1529230062.18,29089,17.56,74078.5,8.75,4.71,4.67,0,*7A
1529230063.45,29090,17.56,74076.3,8.77,4.79,4.71,0,*7F
1529230064.7,29091,17.56,74076.3,8.77,4.79,4.79,0,*76
1529230065.96,29092,17.56,74078.5,8.77,4.79,4.79,0,*75
1529230067.22,29093,17.56,74074.8,8.77,4.79,4.67,0,*7B
1529230068.48,29094,17.56,74074.0,8.77,4.79,4.79,0,*73
1529230069.71,29095,17.56,74076.3,8.77,4.71,4.81,0,*7D
1529230070.97,29096,17.56,74072.0,8.77,4.79,4.79,0,*71
1529230072.23,29097,17.56,74078.0,8.77,4.67,4.71,0,*77
1529230073.44,29098,17.56,74076.5,8.79,4.81,4.75,0,*7A
1529230074.68,29099,17.56,74076.8,8.79,4.93,4.97,0,*74
1529230075.91,29100,17.63,74076.5,8.79,4.93,5.05,0,*7F
1529230077.09,29101,17.56,74076.0,8.79,4.85,4.81,0,*74
1529230078.32,29102,17.56,74074.8,8.81,4.81,4.75,0,*7F
1529230079.52,29103,17.56,74076.0,8.81,4.81,4.85,0,*71
1529230080.73,29104,17.56,74074.3,8.79,4.85,4.97,0,*76
1529230081.97,29105,17.56,74076.5,8.85,4.89,4.97,0,*78
1529230083.2,29106,17.63,74080.0,8.81,4.71,4.81,0,*7F
1529230084.4,29107,17.56,74078.0,8.81,4.81,4.85,0,*75
1529230085.64,29108,17.56,74078.5,8.81,5.05,5.07,0,*7C
1529230086.89,29109,17.56,74072.8,8.81,5.05,5.05,0,*7F
1529230088.09,29110,17.56,74074.0,8.87,4.93,4.89,0,*7A
1529230089.29,29111,17.56,74076.0,8.85,4.89,4.89,0,*72
1529230090.52,29112,17.63,74076.5,8.85,5.01,4.89,0,*70
1529230091.73,29113,17.63,74078.8,8.85,4.57,4.53,0,*74
1529230092.96,29114,17.56,74076.0,8.85,4.85,4.79,0,*74
1529230094.21,29115,17.56,74074.5,8.85,4.63,4.63,0,*76
1529230095.39,29116,17.56,74076.5,8.87,4.53,4.53,0,*77
1529230096.64,29117,17.56,74076.0,8.85,4.67,4.67,0,*74
1529230097.85,29118,17.56,74076.5,8.85,4.57,4.57,0,*7B
1529230099.06,29119,17.56,74074.0,8.85,4.37,4.41,0,*7B
1529230100.27,29120,17.56,74076.8,8.81,4.37,4.45,0,*71
1529230101.47,29121,17.56,74074.0,8.85,4.57,4.57,0,*71
1529230102.73,29122,17.56,74076.5,8.85,4.75,4.75,0,*72
1529230103.93,29123,17.56,74074.8,8.85,4.49,4.53,0,*78
1529230105.16,29124,17.56,74076.8,8.81,4.53,4.59,0,*7A
1529230106.36,29125,17.56,74078.3,8.81,4.45,4.45,0,*71
1529230107.56,29126,17.56,74076.0,8.81,4.49,4.49,0,*72
1529230108.76,29127,17.56,74078.5,8.81,4.53,4.53,0,*73
1529230109.97,29128,17.63,74076.5,8.81,4.53,4.53,0,*7C
1529230111.18,29129,17.63,74076.3,8.81,4.53,4.53,0,*7D
1529230112.4,29130,17.56,74076.3,8.87,4.67,4.67,0,*73
1529230113.64,29131,17.56,74074.5,8.87,4.71,4.71,0,*72
1529230114.9,29132,17.56,74078.0,8.85,4.75,4.75,0,*73
1529230116.15,29133,17.56,74076.5,8.85,4.79,4.79,0,*72
1529230117.38,29134,17.56,74078.0,8.87,4.75,4.75,0,*77
1529230118.58,29135,17.56,74072.3,8.85,4.85,4.85,0,*74
1529230119.79,29136,17.56,74076.5,8.85,4.49,4.41,0,*7F
1529230120.96,29137,17.56,74078.8,8.87,4.53,4.53,0,*74
1529230122.22,29138,17.56,74076.0,8.85,4.75,4.79,0,*75
1529230123.42,29139,17.56,74076.5,8.85,4.49,4.53,0,*73
1529230124.68,29140,17.56,74076.3,8.85,4.67,4.75,0,*75
1529230125.85,29141,17.56,74076.0,8.87,4.81,4.81,0,*75
1529230127.02,29142,17.56,74078.8,8.87,4.53,4.45,0,*71
1529230128.25,29143,17.56,74074.3,8.85,4.31,4.19,0,*7F
1529230129.45,29144,17.56,74078.8,8.85,4.19,4.15,0,*7E
1529230130.65,29145,17.56,74076.8,8.87,4.31,4.23,0,*72